• Join FlightAware (Why Join?)
  • Login
  • US Flag 
07:49AM EST


 

Airport Tracker/Info


-or-


 

Live Flight TrackerFlight Track Log ✈ EJA922 ✈ 28-Jul-2013 ✈ KTOL - KPWK

Flight Track Log - Related Links

Times and Time Zones

All times are in EDT time to prevent confusion due to time zone crossing. See the EJA922 flight status page for this flight to view local times or setup timezone preferences in your user account.

Time Position Orientation Groundspeed Altitude Reporting Facility
EDT Latitude Longitude Course Direction KTS MPH feet Rate Location/Type
03:30PM 41.6994 -84.1683 281° West 283 326 11,600  Level Cleveland Center
03:31PM 41.7589 -84.2661 309° West 303 349 14,700 2,950 Climbing Cleveland Center
03:32PM 41.8206 -84.3589 312° West 340 391 17,500 2,650 Climbing Cleveland Center
03:33PM 41.8858 -84.4661 309° West 359 413 20,000 1,250 Climbing Cleveland Center
03:34PM 41.9528 -84.5789 309° West 371 427 20,000  Level Cleveland Center
03:35PM 41.7444 -84.9125 281° West  Level Estimated
03:35PM 42.0239 -84.6953 309° West 390 449 20,000  Level Cleveland Center
03:36PM 42.0839 -84.8222 303° West 400 460 20,000  Level Cleveland Center
03:37PM 42.1350 -85.0008 291° West 413 475 20,000  Level Chicago Center
03:38PM 42.1778 -85.1447 292° West 415 478 20,000  Level Chicago Center
03:39PM 42.2219 -85.2892 292° West 416 479 20,000  Level Chicago Center
03:40PM 42.2669 -85.4375 292° West 425 489 20,000  Level Chicago Center
03:41PM 42.3106 -85.5869 292° West 428 493 20,000  Level Chicago Center
03:42PM 42.3550 -85.7283 293° West 415 478 20,000  Level Chicago Center
03:43PM 42.3972 -85.8708 292° West 410 472 20,000  Level Chicago Center
03:44PM 42.4469 -86.0422 292° West 408 470 20,000  Level Chicago Center
03:45PM 42.4608 -86.1936 277° West 414 476 20,000  Level Chicago Center
03:46PM 42.4522 -86.3508 266° West 418 481 20,000 -145 Level Chicago Center
03:47PM 42.4442 -86.5053 266° West 413 475 19,700 -1,258 Descending Chicago Center
03:48PM 42.4378 -86.6228 266° West 324 373 17,400 -2,160 Descending Chicago Center
03:49PM 42.4314 -86.7328 266° West 295 339 15,200 -2,352 Descending Chicago Center
03:50PM 42.4236 -86.8600 265° West 284 327 12,500 -2,419 Descending Chicago Center
03:51PM 42.4172 -86.9644 265° West 280 322 10,200 -2,129 Descending Chicago Center
03:53PM 42.4114 -87.0644 266° West 271 312 8,100 -2,081 Descending Chicago Center
03:54PM 42.4061 -87.1642 266° West 268 308 5,900 -1,984 Descending Chicago Center
03:55PM 42.4003 -87.2600 265° West 260 299 4,000 -1,306 Descending Chicago Center
03:56PM 42.3961 -87.3706 267° West 257 296 3,200 -355 Descending Chicago Center
03:57PM 42.3500 -87.5167 247° West 251 289 3,000 -75 Descending Chicago TRACON
03:58PM 42.3333 -87.6000 255° West 245 282 3,000  Level Chicago TRACON
03:59PM 42.3167 -87.6833 255° West 211 243 3,000  Level Chicago TRACON
04:00PM 42.3167 -87.7500 270° West 197 227 3,000  Level Chicago TRACON
04:01PM 42.3000 -87.8333 255° West 201 231 3,000  Level Chicago TRACON
04:02PM 42.2833 -87.9000 251° West 197 227 3,000 -261 Level Chicago TRACON
04:03PM 42.2833 -87.9667 270° West 189 217 2,500 -248 Descending Chicago TRACON
04:04PM 42.2500 -87.9833 200° South 207 238 2,500 -50 Level Chicago TRACON
04:05PM 42.2000 -87.9500 154° Southeast 180 207 2,400 73 Descending Chicago TRACON
04:07PM 42.1143 -87.9015 169° South  Level Estimated
04:14PM 42.1143 -87.9015 169° South  Level Estimated
04:54PM 42.1983 -87.7919 65° Northeast 290 334 6,100  Level Chicago Center
04:55PM 42.1806 -87.6917 103° East 294 338 9,200 3,097 Climbing Chicago Center
04:56PM 42.1706 -87.5733 96° East 314 361 12,500 2,565 Climbing Chicago Center
04:57PM 42.1689 -87.4406 91° East 352 405 14,500 2,323 Climbing Chicago Center
04:58PM 42.1700 -87.2586 89° East 408 470 17,300 2,371 Climbing Chicago Center
04:59PM 42.1667 -87.0997 92° East 422 486 19,400 2,032 Climbing Chicago Center